FW2061 Weather Reports


Display with metric or nautical units.
time (UTC)temp
F
wind
direction
speed
MPH
gust
MPH
rain 1hr
in
rain 24hr
in
rain mn
in
humidity
%
barometer
mb
20260505062047 57 236 0.0 1.0 0.00 0.00 0.00 80 1010.8
20260505061552 57 236 0.0 1.0 0.00 0.00 0.00 80 1010.8
20260505061034 57 236 1.0 1.0 0.00 0.00 0.00 79 1010.7
20260505060526 58 240 0.0 1.0 0.00 0.00 0.00 79 1010.5
20260505060029 58 240 0.0 1.0 0.00 0.00 0.00 78 1010.4
20260505055542 58 240 0.0 2.0 0.00 0.00 0.00 78 1010.3
20260505055034 58 240 1.0 2.0 0.00 0.00 0.00 78 1010.3
20260505054546 58 240 0.0 3.0 0.00 0.00 0.00 78 1010.1
20260505054029 58 238 1.0 3.0 0.00 0.00 0.00 77 1010.1
20260505053542 59 254 1.0 3.0 0.00 0.00 0.00 76 1010.2
20260505053032 59 253 1.0 3.0 0.00 0.00 0.00 76 1010.3
20260505052543 58 242 1.0 3.0 0.00 0.00 0.00 77 1010.2
20260505052026 58 252 1.0 3.0 0.00 0.00 0.00 77 1010.2
20260505051558 59 254 1.0 4.0 0.00 0.00 0.00 76 1010.2
20260505051030 59 242 2.0 4.0 0.00 0.00 0.00 76 1010.1
20260505050602 59 256 2.0 3.0 0.00 0.00 0.00 76 1010.0
20260505050108 59 243 1.0 5.0 0.00 0.00 0.00 75 1010.0
20260505041530 61 251 2.0 6.0 0.00 0.00 0.00 77 1009.8
20260505041104 61 249 1.0 3.0 0.00 0.00 0.00 78 1009.7
20260505040535 61 266 1.0 7.0 0.00 0.00 0.00 78 1009.5
20260505040033 61 248 2.0 7.0 0.00 0.00 0.00 78 1009.5
20260505035526 61 297 2.0 4.0 0.00 0.00 0.00 78 1009.5
20260505035058 61 272 2.0 4.0 0.00 0.00 0.00 77 1009.4
20260505034550 62 245 1.0 4.0 0.00 0.00 0.00 77 1009.4
20260505034033 62 276 1.0 2.0 0.00 0.00 0.00 76 1009.3
20260505033526 62 281 0.0 2.0 0.00 0.00 0.00 74 1009.2
20260505033030 63 269 0.0 3.0 0.00 0.00 0.00 73 1009.2
20260505032542 63 278 1.0 3.0 0.00 0.00 0.00 73 1009.2
20260505032033 62 244 0.0 1.0 0.00 0.00 0.00 72 1009.2
20260505031545 62 244 0.0 1.0 0.00 0.00 0.00 72 1009.2
20260505031025 62 244 0.0 1.0 0.00 0.00 0.00 72 1009.2
20260505030558 63 245 0.0 1.0 0.00 0.00 0.00 72 1009.2
20260505030030 63 245 0.0 1.0 0.00 0.00 0.00 71 1009.1
20260505025543 63 244 1.0 2.0 0.00 0.00 0.00 71 1009.1
20260505025025 63 269 1.0 8.0 0.00 0.00 0.00 70 1009.1
20260505024538 64 264 1.0 11.0 0.00 0.00 0.00 68 1009.0
20260505024049 64 297 5.0 11.0 0.00 0.00 0.00 68 1008.9
20260505023532 64 359 4.0 8.0 0.00 0.00 0.00 68 1008.9
20260505023024 64 27 4.0 8.0 0.00 0.00 0.00 68 1008.7
20260505022523 65 309 4.0 8.0 0.00 0.00 0.00 67 1008.7
20260505022035 65 211 3.0 9.0 0.00 0.00 0.00 66 1008.7
20260505021547 65 258 3.0 9.0 0.00 0.00 0.00 66 1008.7
20260505021055 65 21 4.0 12.0 0.00 0.00 0.00 65 1008.7
20260505020539 66 330 6.0 12.0 0.00 0.00 0.00 64 1008.6
20260505015538 66 281 4.0 9.0 0.00 0.00 0.00 64 1008.5
20260505015042 66 275 4.0 9.0 0.00 0.00 0.00 64 1008.6
20260505014526 67 325 3.0 9.0 0.00 0.00 0.00 64 1008.6
20260505014026 67 267 4.0 9.0 0.00 0.00 0.00 64 1008.7
20260505013558 67 318 2.0 9.0 0.00 0.00 0.00 65 1008.7
20260505013023 67 25 2.0 6.0 0.00 0.00 0.00 66 1008.8
20260505012527 67 18 2.0 5.0 0.00 0.00 0.00 66 1008.7
20260505012036 67 217 1.0 5.0 0.00 0.00 0.00 66 1008.8
20260505011529 68 339 2.0 5.0 0.00 0.00 0.00 65 1008.8
20260505011048 68 97 0.0 4.0 0.00 0.00 0.00 65 1008.9
20260505010539 68 262 1.0 5.0 0.00 0.00 0.00 64 1008.8
20260505010036 68 247 2.0 6.0 0.00 0.00 0.00 63 1008.8
20260505005529 69 292 2.0 6.0 0.00 0.00 0.00 61 1008.9
20260505005058 69 23 1.0 4.0 0.00 0.00 0.00 61 1008.9
20260505004550 69 284 1.0 5.0 0.00 0.00 0.00 60 1008.9
20260505004059 70 233 1.0 5.0 0.00 0.00 0.00 59 1008.9
20260505003541 70 112 1.0 4.0 0.00 0.00 0.00 58 1008.9
20260505003031 71 52 1.0 4.0 0.00 0.00 0.00 59 1008.9
20260505002541 71 52 1.0 4.0 0.00 0.00 0.00 58 1008.9
20260505002109 72 247 0.0 4.0 0.00 0.00 0.00 58 1008.9
20260505001531 72 217 1.0 5.0 0.00 0.00 0.00 57 1008.8
20260505001029 72 214 2.0 5.0 0.00 0.00 0.00 56 1008.9
20260505000540 73 160 1.0 3.0 0.00 0.00 0.00 57 1008.9
20260505000050 73 218 1.0 3.0 0.00 0.00 0.00 57 1008.9
20260504235531 73 219 1.0 3.0 0.00 0.00 0.00 56 1008.9
20260504235022 73 223 1.0 5.0 0.00 0.00 0.00 57 1009.0
20260504234525 73 242 1.0 5.0 0.00 0.00 0.00 57 1008.9
20260504234041 73 236 1.0 4.0 0.00 0.00 0.00 57 1009.0
20260504233524 74 210 2.0 3.0 0.00 0.00 0.00 56 1009.1
20260504233037 74 190 1.0 3.0 0.00 0.00 0.00 56 1009.1
20260504232547 74 280 1.0 3.0 0.00 0.00 0.00 57 1009.0
20260504232030 73 294 1.0 4.0 0.00 0.00 0.00 57 1008.9
20260504231542 72 307 0.0 4.0 0.00 0.00 0.00 58 1008.9
20260504231051 74 337 3.0 4.0 0.00 0.00 0.00 58 1009.0
20260504230535 75 315 2.0 4.0 0.00 0.00 0.00 51 1008.9
20260504230026 75 278 1.0 3.0 0.00 0.00 0.00 51 1008.9
20260504225528 75 241 1.0 6.0 0.00 0.00 0.00 52 1008.9
20260504225040 75 120 3.0 6.0 0.00 0.00 0.00 52 1009.0
20260504224532 76 233 1.0 8.0 0.00 0.00 0.00 51 1009.0
20260504224101 75 132 3.0 8.0 0.00 0.00 0.00 50 1008.9
20260504223523 75 37 3.0 8.0 0.00 0.00 0.00 50 1009.0
20260504223034 74 116 2.0 6.0 0.00 0.00 0.00 50 1009.0
20260504222526 73 168 1.0 4.0 0.00 0.00 0.00 56 1009.1
20260504222029 72 124 1.0 5.0 0.00 0.00 0.00 63 1009.2
20260504221542 71 120 3.0 11.0 0.00 0.00 0.00 65 1009.3
20260504221031 71 118 7.0 11.0 0.00 0.00 0.00 63 1009.4
20260504220543 72 173 6.0 8.0 0.00 0.00 0.00 60 1009.4
20260504220050 71 125 6.0 8.0 0.00 0.00 0.00 65 1009.6
20260504215532 70 123 6.0 8.0 0.00 0.00 0.00 63 1009.5
20260504215023 68 137 5.0 6.0 0.00 0.00 0.00 71 1009.5
20260504214535 68 122 4.0 7.0 0.00 0.00 0.00 72 1009.6
20260504214108 68 114 5.0 9.0 0.00 0.00 0.00 72 1009.7
20260504213531 69 117 7.0 10.0 0.00 0.00 0.00 68 1009.8
20260504213041 70 121 7.0 10.0 0.00 0.00 0.00 62 1009.7
20260504212548 70 126 6.0 9.0 0.00 0.00 0.00 59 1009.7
20260504212100 71 125 7.0 8.0 0.00 0.00 0.00 60 1009.6
20260504211551 70 131 7.0 7.0 0.00 0.00 0.00 61 1009.8
20260504211042 70 132 4.0 5.0 0.00 0.00 0.00 62 1009.8
20260504210525 69 126 4.0 5.0 0.00 0.00 0.00 64 1009.9
20260504210037 69 133 4.0 5.0 0.00 0.00 0.00 66 1010.0
20260504205549 68 126 4.0 5.0 0.00 0.00 0.00 70 1009.9
20260504205032 69 125 4.0 5.0 0.00 0.00 0.00 69 1010.0
20260504204545 70 121 3.0 6.0 0.00 0.00 0.00 61 1010.0
20260504204053 69 131 4.0 6.0 0.00 0.00 0.00 62 1010.0
20260504203544 69 117 5.0 6.0 0.00 0.00 0.00 61 1010.0
20260504203051 69 128 5.0 6.0 0.00 0.00 0.00 63 1010.0
20260504202533 69 128 6.0 6.0 0.00 0.00 0.00 63 1010.0
20260504202025 68 129 5.0 6.0 0.00 0.00 0.00 63 1010.1
20260504201533 68 124 4.0 6.0 0.00 0.00 0.00 63 1010.1
20260504201045 67 119 5.0 6.0 0.00 0.00 0.00 63 1010.1
20260504200528 68 127 5.0 6.0 0.00 0.00 0.00 63 1010.0
20260504200039 68 127 5.0 6.0 0.00 0.00 0.00 65 1010.1
20260504195552 67 121 5.0 6.0 0.00 0.00 0.00 65 1010.1
20260504195104 67 124 6.0 7.0 0.00 0.00 0.00 65 1010.1
20260504194524 66 126 6.0 7.0 0.00 0.00 0.00 68 1010.1
20260504194055 65 127 6.0 7.0 0.00 0.00 0.00 70 1010.1
20260504193527 64 131 5.0 7.0 0.00 0.00 0.00 78 1010.1
20260504193058 64 135 5.0 7.0 0.00 0.00 0.00 81 1010.2
20260504192549 63 136 5.0 9.0 0.00 0.00 0.00 82 1010.1
20260504192032 63 119 7.0 9.0 0.00 0.00 0.00 82 1010.2
20260504191525 62 125 8.0 10.0 0.00 0.00 0.00 82 1010.1
20260504191028 62 128 8.0 10.0 0.00 0.00 0.00 81 1010.2
20260504190536 63 124 7.0 9.0 0.00 0.00 0.00 81 1010.2
20260504190048 63 124 6.0 9.0 0.00 0.00 0.00 81 1010.3
20260504185600 63 118 7.0 10.0 0.00 0.00 0.00 79 1010.3
20260504185029 63 130 8.0 10.0 0.00 0.00 0.00 79 1010.3
20260504184600 62 128 7.0 9.0 0.00 0.00 0.00 82 1010.3
20260504184047 62 119 5.0 10.0 0.00 0.00 0.00 82 1010.5
20260504183530 62 123 7.0 10.0 0.00 0.00 0.00 82 1010.3
20260504183023 61 136 6.0 9.0 0.00 0.00 0.00 83 1010.3
20260504182535 61 129 6.0 8.0 0.00 0.00 0.00 85 1010.3
20260504182037 61 120 7.0 8.0 0.00 0.00 0.00 85 1010.4
20260504181528 61 129 6.0 7.0 0.00 0.00 0.00 85 1010.4
20260504181040 61 123 5.0 6.0 0.00 0.00 0.00 83 1010.5
20260504180551 62 122 5.0 6.0 0.00 0.00 0.00 83 1010.5
20260504180034 62 136 4.0 5.0 0.00 0.00 0.00 84 1010.5
20260504175543 61 141 3.0 4.0 0.00 0.00 0.00 84 1010.5
20260504175032 61 141 2.0 4.0 0.00 0.00 0.00 83 1010.5
20260504174537 61 126 3.0 4.0 0.00 0.00 0.00 83 1010.3
20260504174029 61 122 3.0 5.0 0.00 0.00 0.00 83 1010.3
20260504173540 61 124 3.0 5.0 0.00 0.00 0.00 83 1010.3
20260504173040 61 120 4.0 5.0 0.00 0.00 0.00 82 1010.3
20260504172533 61 157 4.0 5.0 0.00 0.00 0.00 81 1010.2
20260504172045 61 129 3.0 4.0 0.00 0.00 0.00 82 1010.3
20260504171528 61 203 1.0 2.0 0.00 0.00 0.00 81 1010.3
20260504171059 61 203 0.0 3.0 0.00 0.00 0.00 81 1010.4
20260504170531 60 202 1.0 3.0 0.00 0.00 0.00 83 1010.4
20260504151031 59 113 3.0 6.0 0.00 0.00 0.00 83 1009.9
20260504150611 59 131 3.0 6.0 0.00 0.00 0.00 81 1009.9
20260504141034 58 132 4.0 7.0 0.00 0.00 0.00 85 1009.4
20260504140542 58 134 4.0 7.0 0.00 0.00 0.00 85 1009.4
20260504130529 54 207 0.0 0.0 0.00 0.00 0.00 86 1008.9
20260504110548 56 207 0.0 0.0 0.00 0.00 0.00 81 1008.9
20260504100551 57 207 0.0 0.0 0.00 0.00 0.00 86 1009.0
20260504090105 57 207 0.0 0.0 0.00 0.00 0.00 80 1008.8
20260504081611 58 207 0.0 0.0 0.00 0.00 0.00 77 1008.8
20260504081032 58 207 0.0 0.0 0.00 0.00 0.00 78 1008.8
20260504080545 58 207 0.0 0.0 0.00 0.00 0.00 78 1008.8